Showing default

COSMOS 192, 3047

Orbit data source: Space-Track

COSMOS 192, 3047 is a payload satellite owned by OKB-10 (CIS) in LEO that was launched on Thu, 23 Nov 1967 UTC via a KOSMOS 11K65M launch vehicle from the Plesetsk Missile And Space Complex (PKMTR). Payload-class satellites include a variety of spacecraft equipped with specific instruments for various scientific and technological missions. These include communications satellites like Starlink; space stations such as the ISS; scientific satellites like the Hubble; Earth observation satellites from companies like Planet Labs, Umbra, and HawkEye 360; GPS; miniature CubeSats for education and research; and military/defense satellites.

Loading next visibility...
Identifier
3047, 1967-116A
Orbit
LEO
Country
Flag of CISCIS
Related business
Manufacturer
OKB-10
Mission
Spacecraft
Bus & Motor
KAUR-1 11F617, Unknown motor
Mass
775 kg wet, 775 kg dry
Launch date (UTC)
1967-11-23 (58 years ago)
Launch vehicle
KOSMOS 11K65M
Launch site
Plesetsk Missile And Space Complex (PKMTR)
Object type
Payload
Rocket body
Debris
Shape & HBR
Unknown
Radar Cross Section
Large (>1 m²)

Expand to show TLE details & history
Last TLE update: 13 hours ago

TLE from 13 hours ago
0 COSMOS 192
1  3047U 67116A   26123.66411843  .00000303  00000-0  73085-4 0  9995
2  3047  74.0104 100.4031 0009537 276.6878  83.3200 14.57560385 92145
Epoch: 2026-05-03T15:56Z
TLE epoch observation values (Epoch: 2026-05-03T15:56:19.832Z)
Latitude
-0.00008°
Longitude
-0.24398°
Altitude
702.919 km
Speed
7.505 km/s
True Right ascension
06h 41m 36s
True Declination
0° 00' 00"
Sunlit
Object was in daylight at epoch
Visualization orbit readout
Latitude
Unknown
Longitude
Unknown
Altitude
Unknown
Speed
Unknown
Apparent Right ascension
Unknown
Apparent Declination
Unknown
Sunlit
N/A
Visualization observer readout
Local Sidereal Time
12:23:44
Azimuth
Unknown
Elevation
Unknown
Doppler factor
Unknown
Orbital elements
Apogee altitude
705.414 km
Perigee altitude
691.916 km
Semi-major axis
7,076.802 km
Eccentricity
0.00095
Inclination
74.0104°
RAAN
100.4031°
Arg. of periapsis
276.6878°
True anomaly
83.42856°
Mean anomaly
83.32°
Eccentric anomaly
83.37428°
Mean motion
3.64576 °/min
Orbital period
98.74 mins
BSTAR
0.000073085
Loading maneuver chart data...
Computing Atmospheric mass density...
Loading historical data...
Loading historical data...
Loading historical data...
Loading historical data...
Loading historical data...
Loading historical data...
Loading historical data...

Documentation

Showing up to 5 results
|